FW2795 Weather Reports


time (UTC)temp
C
wind
direction
speed
KPH
gust
KPH
rain 1hr
cm
rain 24hr
cm
rain mn
cm
humidity
%
barometer
mb
20260901135012 21 236 4.8 6.4 0.00 0.00 0.00 48 1020.9
20260901134517 21 331 4.8 6.4 0.00 0.00 0.00 48 1020.9
20260901134011 21 276 6.4 11.3 0.00 0.00 0.00 47 1021.0
20260901133516 21 226 3.2 3.2 0.00 0.00 0.00 48 1021.0
20260901133000 21 213 6.4 9.7 0.00 0.00 0.00 48 1020.9
20260901132500 22 221 3.2 6.4 0.00 0.00 0.00 48 1020.9
20260901131959 22 245 3.2 6.4 0.00 0.00 0.00 47 1021.0
20260901131514 22 217 6.4 11.3 0.00 0.00 0.00 43 1021.0
20260901130958 22 221 1.6 3.2 0.00 0.00 0.00 43 1021.0
20260901130458 22 235 3.2 3.2 0.00 0.00 0.00 43 1021.0
20260901130013 22 213 6.4 6.4 0.00 0.00 0.00 43 1021.1
20260901125503 22 226 3.2 4.8 0.00 0.00 0.00 44 1021.0
20260901125002 22 228 6.4 8.0 0.00 0.00 0.00 44 1021.1
20260901124502 22 282 4.8 8.0 0.00 0.00 0.00 43 1021.1
20260901124001 22 246 6.4 8.0 0.00 0.00 0.00 43 1021.1
20260901123516 22 203 3.2 6.4 0.00 0.00 0.00 45 1021.2
20260901123000 23 221 4.8 6.4 0.00 0.00 0.00 43 1021.2
20260901122500 23 211 8.0 11.3 0.00 0.00 0.00 42 1021.1
20260901122000 23 243 6.4 6.4 0.00 0.00 0.00 42 1021.3
20260901121514 22 248 6.4 8.0 0.00 0.00 0.00 45 1021.1
20260901120958 22 226 4.8 6.4 0.00 0.00 0.00 51 1021.4
20260901120458 21 190 4.8 6.4 0.00 0.00 0.00 51 1021.3
20260901120012 22 168 3.2 4.8 0.00 0.00 0.00 50 1021.4
20260901115512 22 165 6.4 6.4 0.00 0.00 0.00 46 1021.2
20260901115012 22 194 4.8 9.7 0.00 0.00 0.00 51 1021.2
20260901114502 22 222 3.2 4.8 0.00 0.00 0.00 44 1021.3
20260901113959 23 210 3.2 3.2 0.00 0.00 0.00 43 1021.2
20260901113514 23 208 4.8 6.4 0.00 0.00 0.00 44 1021.2
20260901113014 23 244 6.4 8.0 0.00 0.00 0.00 45 1021.1
20260901112504 22 280 3.2 6.4 0.00 0.00 0.00 46 1021.2
20260901112003 22 264 4.8 6.4 0.00 0.00 0.00 51 1021.3
20260901111503 22 284 3.2 4.8 0.00 0.00 0.00 52 1021.2
20260901111003 22 267 3.2 4.8 0.00 0.00 0.00 50 1021.2
20260901110502 22 274 9.7 12.9 0.00 0.00 0.00 45 1021.3
20260901110002 22 236 3.2 4.8 0.00 0.00 0.00 50 1021.4
20260901105516 21 223 6.4 6.4 0.00 0.00 0.00 52 1021.4
20260901105001 22 203 4.8 6.4 0.00 0.00 0.00 49 1021.2
20260901104500 22 214 4.8 6.4 0.00 0.00 0.00 51 1021.4
20260901104000 21 223 4.8 8.0 0.00 0.00 0.00 53 1021.4
20260901103515 22 215 4.8 6.4 0.00 0.00 0.00 54 1021.5
20260901103029 22 206 3.2 4.8 0.00 0.00 0.00 53 1021.5
20260901102509 21 211 3.2 6.4 0.00 0.00 0.00 52 1021.5
20260901102008 21 204 4.8 6.4 0.00 0.00 0.00 53 1021.4
20260901101508 21 200 4.8 6.4 0.00 0.00 0.00 54 1021.7
20260901101007 21 189 9.7 12.9 0.00 0.00 0.00 54 1021.5
20260901100505 21 198 6.4 8.0 0.00 0.00 0.00 54 1021.7
20260901100004 21 216 3.2 6.4 0.00 0.00 0.00 53 1021.6
20260901095504 22 227 6.4 11.3 0.00 0.00 0.00 51 1021.7
20260901095004 22 248 3.2 4.8 0.00 0.00 0.00 52 1021.7
20260901094503 22 248 6.4 8.0 0.00 0.00 0.00 53 1021.8
20260901094017 21 242 3.2 6.4 0.00 0.00 0.00 54 1021.8
20260901093506 20 250 4.8 6.4 0.00 0.00 0.00 56 1021.7
20260901093006 20 250 4.8 6.4 0.00 0.00 0.00 55 1021.6
20260901092506 20 270 4.8 6.4 0.00 0.00 0.00 55 1021.7
20260901092005 20 303 6.4 6.4 0.00 0.00 0.00 55 1021.9
20260901091505 20 276 4.8 6.4 0.00 0.00 0.00 55 1021.7
20260901091005 20 234 1.6 3.2 0.00 0.00 0.00 57 1021.6
20260901090505 20 236 3.2 3.2 0.00 0.00 0.00 57 1021.8
20260901090004 20 241 6.4 8.0 0.00 0.00 0.00 57 1021.7
20260901085504 20 254 4.8 9.7 0.00 0.00 0.00 59 1021.9
20260901085018 20 271 3.2 6.4 0.00 0.00 0.00 59 1021.8
20260901084508 20 286 3.2 3.2 0.00 0.00 0.00 57 1021.7
20260901084008 20 290 3.2 4.8 0.00 0.00 0.00 59 1021.6
20260901083523 20 278 3.2 3.2 0.00 0.00 0.00 59 1021.6
20260901083012 20 279 3.2 6.4 0.00 0.00 0.00 60 1021.6
20260901082512 19 275 3.2 4.8 0.00 0.00 0.00 62 1021.6
20260901082011 19 279 3.2 6.4 0.00 0.00 0.00 62 1021.5
20260901081511 19 254 1.6 3.2 0.00 0.00 0.00 62 1021.5
20260901081007 19 250 1.6 3.2 0.00 0.00 0.00 63 1021.8
20260901080506 19 248 3.2 3.2 0.00 0.00 0.00 62 1021.5
20260901080006 19 237 4.8 6.4 0.00 0.00 0.00 62 1021.6
20260901075521 18 270 1.6 3.2 0.00 0.00 0.00 65 1021.4
20260901075010 17 270 1.6 3.2 0.00 0.00 0.00 69 1021.3
20260901074510 17 270 0.0 1.6 0.00 0.00 0.00 71 1021.2
20260901073959 17 270 1.6 3.2 0.00 0.00 0.00 70 1021.3
20260901073514 17 270 0.0 1.6 0.00 0.00 0.00 77 1021.4
20260901072959 15 270 1.6 3.2 0.00 0.00 0.00 81 1021.4
20260901072458 14 270 0.0 1.6 0.00 0.00 0.00 80 1021.3
20260901071958 14 270 0.0 1.6 0.00 0.00 0.00 82 1021.5
20260901071513 13 270 0.0 1.6 0.00 0.00 0.00 82 1021.3
20260901071012 13 270 1.6 3.2 0.00 0.00 0.00 85 1021.2
20260901070511 13 180 0.0 0.0 0.00 0.00 0.00 87 1021.2
20260901070011 13 180 0.0 0.0 0.00 0.00 0.00 89 1021.2
20260901065511 13 180 0.0 0.0 0.00 0.00 0.00 91 1021.2
20260901065010 12 180 0.0 0.0 0.00 0.00 0.00 92 1021.2
20260901064510 12 180 0.0 0.0 0.00 0.00 0.00 93 1021.3
20260901064010 12 180 0.0 0.0 0.00 0.00 0.00 96 1021.2
20260901063509 12 180 0.0 0.0 0.00 0.00 0.00 97 1021.3
20260901063008 11 180 0.0 0.0 0.00 0.00 0.00 97 1021.3
20260901062458 11 180 0.0 0.0 0.00 0.00 0.00 97 1021.2
20260901062013 11 180 0.0 0.0 0.00 0.00 0.00 97 1021.4
20260901061515 11 180 0.0 0.0 0.00 0.00 0.00 96 1021.5
20260901061014 11 180 0.0 0.0 0.00 0.00 0.00 96 1021.2
20260901060504 11 180 0.0 0.0 0.00 0.00 0.00 96 1021.2
20260901060003 10 180 0.0 0.0 0.00 0.00 0.00 95 1021.2
20260901055517 10 180 0.0 0.0 0.00 0.00 0.00 95 1021.2
20260901055002 10 180 0.0 0.0 0.00 0.00 0.00 95 1020.9
20260901054501 10 180 0.0 0.0 0.00 0.00 0.00 94 1021.1
20260901054001 10 180 0.0 0.0 0.00 0.00 0.00 94 1021.0
20260901053515 10 180 0.0 0.0 0.00 0.00 0.00 94 1021.1
20260901053005 10 180 0.0 0.0 0.00 0.00 0.00 94 1021.3
20260901052519 10 180 0.0 0.0 0.00 0.00 0.00 94 1021.2
20260901052009 10 180 0.0 0.0 0.00 0.00 0.00 94 1020.9
20260901051506 10 180 0.0 0.0 0.00 0.00 0.00 94 1021.0
20260901051006 10 180 0.0 0.0 0.00 0.00 0.00 94 1021.0
20260901050505 10 180 0.0 0.0 0.00 0.00 0.00 94 1021.1
20260901050005 10 180 0.0 0.0 0.00 0.00 0.00 94 1021.1
20260901045520 10 180 0.0 0.0 0.00 0.00 0.00 94 1021.0
20260901045010 10 180 0.0 0.0 0.00 0.00 0.00 94 1020.9
20260901044459 10 180 0.0 0.0 0.00 0.00 0.00 94 1021.0
20260901043959 10 180 0.0 0.0 0.00 0.00 0.00 94 1020.7
20260901043513 10 180 0.0 0.0 0.00 0.00 0.00 94 1021.0
20260901043013 11 180 0.0 0.0 0.00 0.00 0.00 94 1020.9
20260901042502 11 180 0.0 0.0 0.00 0.00 0.00 93 1020.9
20260901042001 11 180 0.0 0.0 0.00 0.00 0.00 93 1020.7
20260901041516 11 180 0.0 0.0 0.00 0.00 0.00 93 1020.6
20260901041001 11 180 0.0 0.0 0.00 0.00 0.00 93 1020.7
20260901040500 11 180 0.0 0.0 0.00 0.00 0.00 93 1020.7
20260901040000 11 180 0.0 0.0 0.00 0.00 0.00 93 1020.6
20260901035515 11 180 0.0 0.0 0.00 0.00 0.00 92 1020.7
20260901034959 11 180 0.0 0.0 0.00 0.00 0.00 92 1020.7
20260901034459 11 180 0.0 0.0 0.00 0.00 0.00 92 1020.7
20260901033959 11 180 0.0 0.0 0.00 0.00 0.00 92 1020.8
20260901033513 11 180 0.0 0.0 0.00 0.00 0.00 92 1020.6
20260901033013 11 180 0.0 0.0 0.00 0.00 0.00 92 1020.7
20260901032507 11 180 0.0 0.0 0.00 0.00 0.00 91 1020.6
20260901032006 11 180 0.0 0.0 0.00 0.00 0.00 91 1020.4
20260901031518 11 180 0.0 0.0 0.00 0.00 0.00 91 1020.5
20260901031003 11 180 0.0 0.0 0.00 0.00 0.00 91 1020.5
20260901030517 11 180 0.0 0.0 0.00 0.00 0.00 90 1020.6
20260901030007 11 180 0.0 0.0 0.00 0.00 0.00 90 1020.7
20260901025507 11 180 0.0 0.0 0.00 0.00 0.00 90 1020.4
20260901025006 11 180 0.0 0.0 0.00 0.00 0.00 90 1020.6
20260901024505 11 180 0.0 0.0 0.00 0.00 0.00 90 1020.6
20260901024020 11 180 0.0 0.0 0.00 0.00 0.00 90 1020.6
20260901023509 11 315 0.0 0.0 0.00 0.00 0.00 90 1020.5
20260901023009 11 315 0.0 0.0 0.00 0.00 0.00 90 1020.5
20260901022514 11 315 0.0 0.0 0.00 0.03 0.00 89 1020.7
20260901022004 12 315 0.0 0.0 0.00 0.03 0.00 89 1020.6
20260901021518 12 315 0.0 1.6 0.00 0.03 0.00 89 1020.6
20260901021003 12 315 1.6 3.2 0.00 0.03 0.00 88 1020.6
20260901020502 12 315 1.6 3.2 0.00 0.03 0.00 87 1020.7
20260901020002 12 315 0.0 0.0 0.00 0.03 0.00 86 1020.7
20260901015517 12 315 0.0 1.6 0.00 0.03 0.00 86 1020.8
20260901015001 12 315 0.0 1.6 0.00 0.03 0.00 85 1020.8
20260901014501 12 315 0.0 0.0 0.00 0.03 0.00 85 1020.7
20260901014000 12 315 0.0 0.0 0.00 0.03 0.00 82 1020.6
20260901013514 12 315 3.2 3.2 0.00 0.03 0.00 82 1020.5
20260901013004 12 315 0.0 1.6 0.00 0.03 0.00 82 1020.6
20260901012504 12 315 1.6 3.2 0.00 0.03 0.00 82 1020.8
20260901012004 12 315 1.6 3.2 0.00 0.03 0.00 82 1020.6
20260901011518 12 315 0.0 1.6 0.00 0.03 0.00 81 1020.6
20260901011003 12 315 1.6 3.2 0.00 0.03 0.00 81 1020.7
20260901010503 12 315 0.0 0.0 0.00 0.03 0.00 81 1020.5
20260901010017 12 315 0.0 1.6 0.00 0.03 0.00 81 1020.6
20260901005512 13 308 1.6 3.2 0.00 0.03 0.00 81 1020.5
20260901005011 13 302 1.6 3.2 0.00 0.03 0.00 80 1020.5
20260901004511 13 270 0.0 1.6 0.00 0.03 0.00 80 1020.7
20260901004010 13 270 0.0 1.6 0.00 0.03 0.00 79 1020.7
20260901003525 13 248 0.0 0.0 0.00 0.03 0.00 79 1020.6
20260901003000 13 238 1.6 3.2 0.00 0.03 0.00 79 1020.4
20260901002459 13 224 0.0 1.6 0.00 0.03 0.00 78 1020.6
20260901001958 13 224 0.0 1.6 0.00 0.03 0.00 77 1020.6
20260901001513 13 233 0.0 1.6 0.00 0.03 0.00 77 1020.6
20260901000958 13 232 1.6 3.2 0.00 0.10 0.00 76 1020.6
20260901000458 13 246 3.2 3.2 0.00 0.20 0.00 76 1020.7
20260831235957 13 267 1.6 3.2 0.00 0.20 0.00 76 1020.4
20260831235512 14 242 0.0 3.2 0.00 0.23 0.00 76 1020.5
20260831234956 14 251 1.6 3.2 0.00 0.23 0.00 76 1020.6
20260831234456 14 239 1.6 3.2 0.00 0.23 0.00 75 1020.4
20260831233956 14 244 3.2 4.8 0.00 0.23 0.00 76 1020.5
20260831233510 14 256 1.6 1.6 0.00 0.28 0.00 75 1020.5
20260831232955 14 266 1.6 3.2 0.00 0.28 0.00 75 1020.5
20260831232510 14 278 3.2 3.2 0.00 0.28 0.00 74 1020.3
20260831231959 14 259 1.6 3.2 0.00 0.30 0.00 74 1020.5
20260831231514 14 250 1.6 3.2 0.00 0.30 0.00 73 1020.3
20260831230958 15 243 1.6 3.2 0.00 0.30 0.00 73 1020.3
20260831230513 15 315 0.0 1.6 0.00 0.30 0.00 72 1020.3
20260831230003 15 315 0.0 1.6 0.00 0.30 0.00 72 1020.2
20260831225517 15 315 0.0 1.6 0.00 0.30 0.00 71 1020.3
20260831225007 15 315 0.0 0.0 0.00 0.30 0.00 71 1020.3
20260831224507 15 308 1.6 3.2 0.00 0.30 0.00 71 1020.2
20260831224007 15 306 1.6 3.2 0.00 0.30 0.00 70 1020.2
20260831223506 15 307 0.0 1.6 0.00 0.30 0.00 70 1020.2
20260831223006 15 309 1.6 3.2 0.00 0.30 0.00 70 1020.1
20260831222505 15 299 1.6 3.2 0.00 0.30 0.00 70 1020.3
20260831222005 15 304 1.6 3.2 0.00 0.30 0.00 70 1020.3
20260831221520 15 309 1.6 3.2 0.00 0.30 0.00 70 1020.1
20260831221004 16 302 1.6 3.2 0.00 0.30 0.00 69 1020.1
20260831220504 16 291 3.2 4.8 0.00 0.30 0.00 69 1020.2
20260831220003 16 286 3.2 3.2 0.00 0.30 0.00 69 1019.9
20260831215518 16 304 3.2 4.8 0.00 0.30 0.00 68 1020.0
20260831215003 16 280 3.2 6.4 0.00 0.30 0.00 68 1019.8
20260831214501 16 310 1.6 3.2 0.00 0.30 0.00 67 1019.9
20260831214001 16 312 3.2 4.8 0.00 0.30 0.00 67 1019.9
20260831213516 16 314 6.4 6.4 0.00 0.30 0.00 67 1019.9
20260831213000 16 314 3.2 6.4 0.00 0.30 0.00 67 1019.8
20260831212514 17 314 3.2 8.0 0.00 0.30 0.00 68 1019.8
20260831212014 17 313 6.4 8.0 0.00 0.30 0.00 68 1019.6
20260831211514 17 312 3.2 6.4 0.00 0.30 0.00 68 1019.8
20260831211013 17 331 3.2 6.4 0.00 0.30 0.00 68 1019.5
20260831210512 17 315 3.2 6.4 0.00 0.30 0.00 68 1019.6
20260831210011 17 315 1.6 3.2 0.00 0.30 0.00 68 1019.6
20260831205515 17 315 4.8 6.4 0.00 0.30 0.00 69 1019.6
20260831205015 17 305 3.2 4.8 0.00 0.30 0.00 68 1019.4
20260831204514 17 303 3.2 3.2 0.00 0.30 0.00 68 1019.4
20260831204003 17 307 1.6 3.2 0.00 0.30 0.00 68 1019.4
20260831203518 17 308 6.4 8.0 0.00 0.30 0.00 64 1019.2
20260831203012 17 300 3.2 6.4 0.00 0.33 0.00 64 1019.4
20260831202502 17 295 3.2 6.4 0.00 0.61 0.00 64 1019.2
20260831202002 17 313 6.4 8.0 0.00 0.66 0.00 64 1019.2
20260831201516 17 302 3.2 3.2 0.00 0.69 0.00 64 1019.3
20260831201001 17 298 1.6 4.8 0.00 0.86 0.00 63 1019.0
20260831200500 17 291 3.2 3.2 0.00 1.02 0.00 63 1019.1
20260831200000 17 295 3.2 3.2 0.00 1.12 0.00 63 1018.9
20260831195515 17 282 1.6 3.2 0.00 1.17 0.00 63 1018.9
20260831195014 17 273 3.2 3.2 0.00 1.19 0.00 63 1018.8
20260831194504 17 290 3.2 6.4 0.00 1.19 0.00 62 1018.9
20260831194019 17 274 3.2 3.2 0.00 1.19 0.00 62 1018.7
20260831193523 18 247 3.2 3.2 0.00 1.19 0.00 62 1018.7
20260831193006 18 253 1.6 3.2 0.00 1.19 0.00 62 1018.7
20260831192505 18 272 1.6 3.2 0.00 1.19 0.00 62 1018.4
20260831192005 18 282 3.2 4.8 0.00 1.19 0.00 62 1018.2
20260831191520 18 294 1.6 3.2 0.00 1.19 0.00 61 1018.2
20260831191005 18 284 1.6 3.2 0.00 1.19 0.00 61 1018.1
20260831190505 18 297 3.2 4.8 0.00 1.19 0.00 61 1018.1
20260831190004 18 305 3.2 6.4 0.00 1.19 0.00 60 1017.8
20260831185519 18 294 1.6 3.2 0.00 1.19 0.00 60 1017.9
20260831185004 18 287 3.2 3.2 0.00 1.19 0.00 60 1017.9
20260831184503 18 298 4.8 6.4 0.00 1.19 0.00 60 1017.6
20260831184003 19 289 6.4 12.9 0.00 1.19 0.00 60 1017.6
20260831183518 19 272 6.4 12.9 0.00 1.19 0.00 60 1017.8
20260831183002 19 273 3.2 6.4 0.00 1.19 0.00 60 1017.5
20260831182502 19 258 6.4 11.3 0.00 1.19 0.00 60 1017.6
20260831182016 20 283 3.2 4.8 0.00 1.19 0.00 60 1017.6
20260831181521 20 277 3.2 6.4 0.00 1.19 0.00 60 1017.4
20260831181020 20 275 6.4 12.9 0.00 1.19 0.00 60 1017.5
20260831180509 20 282 6.4 9.7 0.00 1.19 0.00 60 1017.4
20260831180009 20 294 4.8 6.4 0.00 1.19 0.00 60 1017.4
20260831175523 20 307 8.0 12.9 0.00 1.19 0.00 59 1017.1
20260831175013 20 292 6.4 9.7 0.00 1.19 0.00 58 1017.2
20260831174513 20 346 6.4 9.7 0.00 1.19 0.00 58 1017.1
20260831174012 20 317 6.4 8.0 0.00 1.19 0.00 57 1017.0
20260831173512 21 308 4.8 6.4 0.00 1.19 0.00 56 1017.0
20260831173012 21 271 6.4 9.7 0.00 1.19 0.00 55 1017.0
20260831172511 21 198 4.8 6.4 0.00 1.19 0.00 55 1017.0
20260831172026 21 247 4.8 6.4 0.00 1.19 0.00 56 1016.9
20260831171520 21 218 6.4 14.5 0.00 1.19 0.00 58 1016.8
20260831171005 21 210 6.4 8.0 0.00 1.19 0.00 59 1016.9
20260831170505 21 243 6.4 9.7 0.00 1.19 0.00 58 1016.6
20260831170004 21 248 6.4 12.9 0.00 1.19 0.00 57 1016.5
20260831165518 21 259 6.4 9.7 0.00 1.19 0.00 56 1016.5
20260831165015 22 260 8.0 12.9 0.00 1.19 0.00 55 1016.5
20260831164505 22 283 8.0 12.9 0.00 1.19 0.00 54 1016.5
20260831164005 22 305 6.4 9.7 0.00 1.19 0.00 53 1016.5
20260831163520 22 311 12.9 19.3 0.00 1.19 0.00 50 1016.4
20260831163004 22 307 4.8 11.3 0.00 1.19 0.00 50 1016.3
20260831162504 22 293 6.4 11.3 0.00 1.19 0.00 50 1016.4
20260831162003 22 277 6.4 8.0 0.00 1.19 0.00 50 1016.2
20260831161518 22 289 8.0 12.9 0.00 1.19 0.00 50 1016.1
20260831161002 22 317 8.0 12.9 0.00 1.19 0.00 50 1016.2
20260831160517 22 329 8.0 12.9 0.00 1.19 0.00 51 1016.0
20260831160007 22 354 9.7 14.5 0.00 1.19 0.00 52 1016.0
20260831155521 22 283 8.0 16.1 0.00 1.19 0.00 51 1016.0
20260831155020 23 310 6.4 8.0 0.00 1.19 0.00 49 1015.7
20260831154510 23 278 9.7 14.5 0.00 1.19 0.00 46 1015.7
20260831154010 23 283 6.4 11.3 0.00 1.19 0.00 44 1015.6
20260831153509 23 279 3.2 4.8 0.00 1.19 0.00 48 1015.6
20260831153023 23 273 6.4 8.0 0.00 1.19 0.00 49 1015.4
20260831152513 23 317 6.4 9.7 0.00 1.19 0.00 48 1015.4
20260831152012 24 285 6.4 12.9 0.00 1.19 0.00 48 1015.4
20260831151912 23 260 6.4 9.7 0.00 1.19 0.00 47 1015.4
20260831151011 24 297 6.4 12.9 0.00 1.19 0.00 47 1015.3
20260831150456 24 270 8.0 14.5 0.00 1.19 0.00 47 1015.3
20260831145840 23 282 11.3 14.5 0.00 1.19 0.00 48 1015.2
20260831145000 23 300 8.0 16.1 0.00 1.19 0.00 48 1015.2
20260831144459 24 317 6.4 12.9 0.00 1.19 0.00 45 1015.1
20260831144014 24 304 11.3 12.9 0.00 1.19 0.00 43 1015.2
20260831143519 23 321 6.4 11.3 0.00 1.19 0.00 44 1015.3
20260831143003 25 318 8.0 14.5 0.00 1.19 0.00 43 1015.2
20260831142518 24 324 6.4 12.9 0.00 1.19 0.00 45 1015.2
20260831142007 25 327 8.0 11.3 0.00 1.19 0.00 44 1015.0
20260831141522 25 327 9.7 14.5 0.00 1.19 0.00 43 1014.8
20260831141006 25 296 9.7 14.5 0.00 1.19 0.00 43 1014.8
20260831140506 25 278 8.0 14.5 0.00 1.19 0.00 43 1014.9
20260831140006 24 251 6.4 12.9 0.00 1.19 0.00 43 1014.7
20260831135520 24 234 6.4 12.9 0.00 1.19 0.00 47 1014.6